Location: Pacheco
(37.9835°N, 122.0752°W)
Time: 06:42:39
(UTC+00:00)

Cosmos 1656 Rocket - Visible Passes

Search period start: 13 July 2024 00:00
Search period end: 23 July 2024 00:00
Orbit: 794 x 845 km, 71.1° (Epoch: 12 July)

Date Brightness Start Highest point End Pass type
(mag) Time Alt. Az. Time Alt. Az. Time Alt. Az.
13 Jul 3.8 08:44:29 67° N 08:44:29 67° N 08:49:16 10° NNE visible
13 Jul 5.9 10:26:09 10° WNW 10:28:10 12° NW 10:30:13 10° NNW visible
14 Jul 4.0 08:23:07 59° NE 08:23:07 59° NE 08:27:35 10° NNE visible
14 Jul 5.8 10:04:26 12° WNW 10:06:19 14° NW 10:09:13 10° NNW visible
15 Jul 4.2 08:01:42 49° NE 08:01:42 49° NE 08:05:51 10° NNE visible
15 Jul 5.6 09:43:02 15° WNW 09:44:28 17° NW 09:47:59 10° NNW visible
16 Jul 4.5 07:40:16 41° ENE 07:40:16 41° ENE 07:44:06 10° NNE visible
16 Jul 5.4 09:21:35 19° WNW 09:22:38 20° NW 09:26:38 10° N visible
17 Jul 4.7 07:18:47 34° ENE 07:18:47 34° ENE 07:22:18 10° NE visible
17 Jul 5.3 09:00:07 23° WNW 09:00:50 24° WNW 09:05:13 10° N visible
18 Jul 4.9 06:57:17 29° ENE 06:57:17 29° ENE 07:00:28 10° NE visible
18 Jul 5.1 08:38:35 28° WNW 08:39:02 28° WNW 08:43:45 10° N visible
19 Jul 5.1 06:35:43 24° ENE 06:35:43 24° ENE 06:38:34 10° NE visible
19 Jul 4.8 08:17:02 33° WNW 08:17:15 33° WNW 08:22:14 10° N visible
20 Jul 5.2 06:14:06 21° ENE 06:14:06 21° ENE 06:16:37 10° NE visible
20 Jul 4.6 07:55:25 40° WNW 07:55:29 40° WNW 08:00:41 10° N visible
21 Jul 5.4 05:52:26 17° ENE 05:52:26 17° ENE 05:54:35 10° NE visible
21 Jul 4.3 07:33:44 48° WNW 07:33:44 48° WNW 07:39:06 10° N visible
22 Jul 5.5 05:30:42 15° ENE 05:30:42 15° ENE 05:32:25 10° ENE visible
22 Jul 4.0 07:11:59 58° WNW 07:12:00 58° WNW 07:17:28 10° NNE visible
